| time (UTC) | temp F | wind direction | speed knots | gust knots | rain 1hr in | rain 24hr in | rain mn in | humidity % | barometer mb |
| 20260504050126 | 46 | 195 | 5.2 | 6.1 | 0.00 | 0.02 | 0.02 | 91 | 997.5 |
| 20260504044621 | 46 | 184 | 3.5 | 3.5 | 0.00 | 0.02 | 0.02 | 91 | 997.2 |
| 20260504043118 | 46 | 208 | 6.1 | 7.0 | 0.00 | 0.02 | 0.02 | 91 | 998.0 |
| 20260504041613 | 46 | 224 | 4.3 | 5.2 | 0.07 | 0.02 | 0.02 | 91 | 998.0 |
| 20260504040109 | 46 | 222 | 5.2 | 6.1 | 0.00 | 0.04 | 0.04 | 89 | 997.7 |
| 20260504034606 | 46 | 195 | 4.3 | 7.0 | 0.00 | 0.04 | 0.04 | 91 | 997.9 |
| 20260504033103 | 45 | 196 | 4.3 | 5.2 | 0.00 | 0.04 | 0.04 | 91 | 997.8 |
| 20260504031600 | 45 | 165 | 1.7 | 2.6 | 0.00 | 0.04 | 0.04 | 90 | 998.0 |
| 20260504030055 | 45 | 198 | 5.2 | 5.2 | 0.00 | 0.04 | 0.04 | 89 | 997.9 |
| 20260504024552 | 45 | 194 | 3.5 | 5.2 | 0.00 | 0.04 | 0.04 | 87 | 998.2 |
| 20260504023047 | 45 | 215 | 3.5 | 3.5 | 0.00 | 0.04 | 0.04 | 87 | 998.3 |
| 20260504021543 | 45 | 264 | 4.3 | 5.2 | 0.00 | 0.04 | 0.04 | 85 | 998.4 |
| 20260504020039 | 45 | 189 | 7.8 | 9.6 | 0.05 | 0.03 | 0.03 | 81 | 998.5 |
| 20260504014534 | 46 | 202 | 4.3 | 5.2 | 0.07 | 0.01 | 0.01 | 75 | 998.4 |
| 20260504013032 | 47 | 220 | 4.3 | 5.2 | 0.00 | 0.00 | 0.00 | 68 | 998.6 |
| 20260504011529 | 48 | 210 | 4.3 | 6.1 | 0.00 | 0.00 | 0.00 | 59 | 998.5 |
| 20260504010029 | 47 | 191 | 3.5 | 3.5 | 0.00 | 0.00 | 0.00 | 55 | 998.4 |
| 20260504004527 | 48 | 145 | 0.9 | 0.9 | 0.00 | 0.00 | 0.00 | 51 | 998.1 |
| 20260504003023 | 48 | 165 | 1.7 | 1.7 | 0.00 | 0.00 | 0.00 | 49 | 998.3 |
| 20260504001520 | 48 | 222 | 4.3 | 3.5 | 0.00 | 0.00 | 0.00 | 45 | 998.1 |
| 20260504000016 | 49 | 264 | 5.2 | 7.0 | 0.00 | 0.00 | 0.00 | 41 | 998.0 |
| 20260503234515 | 49 | 215 | 6.1 | 7.0 | 0.00 | 0.00 | 0.00 | 37 | 998.2 |
| 20260503233011 | 49 | 222 | 7.8 | 9.6 | 0.00 | 0.00 | 0.00 | 35 | 998.5 |
| 20260503231509 | 49 | 183 | 2.6 | 2.6 | 0.00 | 0.00 | 0.00 | 35 | 998.4 |
| 20260503230006 | 49 | 170 | 2.6 | 3.5 | 0.00 | 0.00 | 0.00 | 37 | 998.2 |
| 20260503224501 | 50 | 246 | 5.2 | 5.2 | 0.00 | 0.00 | 0.00 | 36 | 998.3 |
| 20260503222957 | 50 | 259 | 4.3 | 6.1 | 0.00 | 0.00 | 0.00 | 38 | 998.5 |
| 20260503221452 | 50 | 206 | 6.1 | 7.8 | 0.00 | 0.00 | 0.00 | 37 | 998.6 |
| 20260503215948 | 51 | 239 | 7.8 | 8.7 | 0.00 | 0.00 | 0.00 | 36 | 998.5 |
| 20260503214446 | 51 | 228 | 6.1 | 7.0 | 0.00 | 0.00 | 0.00 | 39 | 998.5 |
| 20260503212943 | 52 | 240 | 7.0 | 7.8 | 0.00 | 0.00 | 0.00 | 40 | 998.4 |
| 20260503211440 | 52 | 216 | 8.7 | 12.2 | 0.00 | 0.00 | 0.00 | 38 | 998.5 |
| 20260503205939 | 51 | 215 | 8.7 | 8.7 | 0.00 | 0.00 | 0.00 | 43 | 998.9 |
| 20260503204436 | 51 | 234 | 9.6 | 11.3 | 0.00 | 0.00 | 0.00 | 47 | 999.1 |
| 20260503202933 | 51 | 278 | 7.8 | 7.8 | 0.00 | 0.00 | 0.00 | 46 | 999.1 |
| 20260503201432 | 52 | 215 | 7.8 | 12.2 | 0.00 | 0.00 | 0.00 | 41 | 999.3 |
| 20260503195928 | 51 | 240 | 9.6 | 12.2 | 0.00 | 0.00 | 0.00 | 41 | 999.2 |
| 20260503194424 | 50 | 244 | 11.3 | 14.8 | 0.00 | 0.00 | 0.00 | 43 | 999.4 |
| 20260503192923 | 51 | 262 | 7.0 | 7.8 | 0.00 | 0.00 | 0.00 | 39 | 999.7 |
| 20260503191419 | 51 | 257 | 9.6 | 12.2 | 0.00 | 0.00 | 0.00 | 38 | 999.8 |
| 20260503185915 | 50 | 198 | 8.7 | 12.2 | 0.00 | 0.00 | 0.00 | 36 | 999.9 |
| 20260503184413 | 49 | 213 | 10.4 | 12.2 | 0.00 | 0.00 | 0.00 | 38 | 1000.3 |
| 20260503182909 | 50 | 233 | 9.6 | 13.9 | 0.00 | 0.00 | 0.00 | 36 | 1000.2 |
| 20260503181408 | 50 | 267 | 7.0 | 9.6 | 0.00 | 0.00 | 0.00 | 38 | 1000.3 |
| 20260503175904 | 50 | 258 | 3.5 | 3.5 | 0.00 | 0.00 | 0.00 | 37 | 1000.4 |
| 20260503174402 | 50 | 225 | 9.6 | 9.6 | 0.00 | 0.00 | 0.00 | 34 | 1000.3 |
| 20260503172901 | 51 | 241 | 7.0 | 11.3 | 0.00 | 0.00 | 0.00 | 39 | 1000.4 |
| 20260503171358 | 49 | 248 | 10.4 | 13.9 | 0.00 | 0.00 | 0.00 | 37 | 1000.7 |
| 20260503131314 | 44 | 284 | 9.6 | 9.6 | 0.00 | 0.00 | 0.00 | 43 | 1002.3 |
| 20260503081225 | 39 | 150 | 0.9 | 0.9 | 0.00 | 0.00 | 0.00 | 78 | 1001.7 |
| 20260503072718 | 39 | 121 | 0.0 | 0.0 | 0.00 | 0.00 | 0.00 | 80 | 1001.9 |
| 20260503071214 | 39 | 157 | 1.7 | 1.7 | 0.00 | 0.00 | 0.00 | 81 | 1001.8 |